User: anonymous   Login
Location: Caltech
(34.1382°N, 118.1253°W)
Time: 17:52:07
(UTC-08:00)
Language:

Cosmos 1758 Rocket - Orbit

View from above orbital plane
View from above orbital plane
View from above satellite
View from above satellite

Ground track
Ground track

The orbit data is extracted from the following two-line orbital elements,

1 16792U 86046B   16337.80212258  .00000105  00000-0  99293-5 0  9990
2 16792  82.4837  27.1940 0023343 216.8160 265.2523 14.83105542645778
Epoch (UTC): 02 December 2016 19:15:03
Eccentricity: 0.0023343
inclination: 82.4837°
perigee height: 603 km
apogee height: 636 km
right ascension of ascending node: 27.1940°
argument of perigee: 216.8160°
revolutions per day: 14.83105542
mean anomaly at epoch: 265.2523°
orbit number at epoch: 64577

The dashed part of the orbit path shows where the satellite is in the earth's shadow,  

DLR